THOR ABLESTAR DEB, 230

Orbit data source: Space-Track

THOR ABLESTAR DEB, 230 is space debris in LEO originally from a launch on Thu, 29 Jun 1961 UTC launched from the Air Force Eastern Test Range (AFETR). Debris objects in space refer to the collection of defunct objects orbiting the Earth. Examples of debris include non-operational satellites, rocket bodies, and fragments generated from explosions, collisions, or faulty payload assembly.

Loading next visibility...
Identifier
230, 1961-015BN
Orbit
LEO
Country
Flag of USUS
Related business
Manufacturer
Unknown
Mission
Spacecraft
Bus & Motor
Unknown
Mass
Unknown
Launch date (UTC)
1961-06-29 (65 years ago)
Launch vehicle
Unknown
Launch site
Air Force Eastern Test Range (AFETR)
Object type
Payload
Rocket body
Debris
Shape & HBR
Unknown shape, 0.2 m
Radar Cross Section
Small (<0.1 m²)

Expand to show TLE details & history
Last TLE update: 12 hours ago

TLE from 12 hours ago
0 THOR ABLESTAR DEB
1   230U 61015BN  26131.16882628  .00000026  00000-0  71668-4 0  9992
2   230  66.8810 140.0544 0095757 203.6581 156.0084 13.96799169300582
Epoch: 2026-05-11T04:03Z
TLE epoch observation values (Epoch: 2026-05-11T04:03:06.590Z)
Latitude
-0.00011°
Longitude
-149.68452°
Altitude
970.819 km
Speed
7.334 km/s
True Right ascension
09h 20m 13s
True Declination
0° 00' 00"
Sunlit
Object was in daylight at epoch
Visualization orbit readout
Latitude
Unknown
Longitude
Unknown
Altitude
Unknown
Speed
Unknown
Apparent Right ascension
Unknown
Apparent Declination
Unknown
Sunlit
N/A
Visualization observer readout
Local Sidereal Time
23:50:55
Azimuth
Unknown
Elevation
Unknown
Doppler factor
Unknown
Orbital elements
Apogee altitude
973.004 km
Perigee altitude
833.555 km
Semi-major axis
7,281.417 km
Eccentricity
0.00958
Inclination
66.881°
RAAN
140.0544°
Arg. of periapsis
203.6581°
True anomaly
156.44973°
Mean anomaly
156.0084°
Eccentric anomaly
156.22955°
Mean motion
3.49317 °/min
Orbital period
103.06 mins
BSTAR
0.000071668
Loading maneuver chart data...
Computing Atmospheric mass density...

Documentation

Showing up to 5 results
|